Time,TemperatureF,DewpointF,PressureIn,WindDirection,WindDirectionDegrees,WindSpeedMPH,WindSpeedGustMPH,Humidity,HourlyPrecipIn,Conditions,Clouds,dailyrainin,SolarRadiationWatts/m^2,SoftwareType,DateUTC
2013-06-16 00:00:00,53.1,50.8,29.90,NW,311,0.0,0.0,92,0.00,,,0.00,0,Wunderground v.1.15,2013-06-16 04:00:00,
2013-06-16 00:05:00,53.2,51.2,29.90,NW,311,0.0,0.0,93,0.00,,,0.00,0,Wunderground v.1.15,2013-06-16 04:05:00,
2013-06-16 00:10:00,53.1,51.1,29.90,NW,311,0.0,0.0,93,0.00,,,0.00,0,Wunderground v.1.15,2013-06-16 04:10:00,
2013-06-16 00:20:00,52.9,50.9,29.91,NW,311,0.0,0.0,93,0.00,,,0.00,0,Wunderground v.1.15,2013-06-16 04:20:00,
2013-06-16 00:25:00,52.8,50.8,29.90,NW,311,0.0,0.0,93,0.00,,,0.00,0,Wunderground v.1.15,2013-06-16 04:25:00,
2013-06-16 00:35:00,52.7,50.7,29.90,NW,311,0.0,0.0,93,0.00,,,0.00,0,Wunderground v.1.15,2013-06-16 04:35:00,
2013-06-16 00:40:00,52.6,50.6,29.90,NW,311,0.0,0.0,93,0.00,,,0.00,0,Wunderground v.1.15,2013-06-16 04:40:00,
2013-06-16 00:50:00,52.7,51.0,29.90,NW,311,0.0,0.0,94,0.00,,,0.00,0,Wunderground v.1.15,2013-06-16 04:50:00,
2013-06-16 01:00:00,52.2,50.5,29.89,NW,311,0.0,0.0,94,0.00,,,0.00,0,Wunderground v.1.15,2013-06-16 05:00:00,
2013-06-16 01:10:00,52.1,50.4,29.89,NW,311,0.0,0.0,94,0.00,,,0.00,0,Wunderground v.1.15,2013-06-16 05:10:00,
2013-06-16 01:15:00,52.0,50.3,29.90,NW,311,0.0,0.0,94,0.00,,,0.00,0,Wunderground v.1.15,2013-06-16 05:15:00,
2013-06-16 01:25:00,51.8,50.1,29.90,NW,311,0.0,0.0,94,0.00,,,0.00,0,Wunderground v.1.15,2013-06-16 05:25:00,
2013-06-16 01:35:00,51.6,49.9,29.89,NW,311,0.0,0.0,94,0.00,,,0.00,0,Wunderground v.1.15,2013-06-16 05:35:00,
2013-06-16 01:45:00,51.3,49.9,29.90,NW,311,0.0,0.0,95,0.00,,,0.00,0,Wunderground v.1.15,2013-06-16 05:45:00,
2013-06-16 01:55:00,51.0,49.3,29.90,NW,311,0.0,0.0,94,0.00,,,0.00,0,Wunderground v.1.15,2013-06-16 05:55:00,
2013-06-16 02:00:00,50.9,49.5,29.90,NW,311,0.0,0.0,95,0.00,,,0.00,0,Wunderground v.1.15,2013-06-16 06:00:00,
2013-06-16 02:10:00,50.7,49.3,29.90,NW,311,0.0,0.0,95,0.00,,,0.00,0,Wunderground v.1.15,2013-06-16 06:10:00,
2013-06-16 02:20:00,50.5,49.1,29.91,NW,311,0.0,0.0,95,0.00,,,0.00,0,Wunderground v.1.15,2013-06-16 06:20:00,
2013-06-16 02:30:00,50.4,49.0,29.90,NW,311,0.0,0.0,95,0.00,,,0.00,0,Wunderground v.1.15,2013-06-16 06:30:00,
2013-06-16 02:40:00,50.2,48.8,29.90,NW,311,0.0,0.0,95,0.00,,,0.00,0,Wunderground v.1.15,2013-06-16 06:40:00,
2013-06-16 02:45:00,50.2,48.8,29.90,NW,311,0.0,0.0,95,0.00,,,0.00,0,Wunderground v.1.15,2013-06-16 06:45:00,
2013-06-16 02:55:00,50.1,48.7,29.90,NW,311,0.0,0.0,95,0.00,,,0.00,0,Wunderground v.1.15,2013-06-16 06:55:00,
2013-06-16 03:00:00,50.0,48.6,29.90,NW,311,0.0,0.0,95,0.00,,,0.00,0,Wunderground v.1.15,2013-06-16 07:00:00,
2013-06-16 03:10:00,49.8,48.4,29.90,NW,311,0.0,0.0,95,0.00,,,0.00,0,Wunderground v.1.15,2013-06-16 07:10:00,
2013-06-16 03:20:00,49.8,48.4,29.90,NW,311,0.0,0.0,95,0.00,,,0.00,0,Wunderground v.1.15,2013-06-16 07:20:00,
2013-06-16 03:30:00,49.9,48.8,29.90,NW,311,0.0,0.0,96,0.00,,,0.00,0,Wunderground v.1.15,2013-06-16 07:30:00,
2013-06-16 03:40:00,49.5,48.1,29.90,NW,311,0.0,0.0,95,0.00,,,0.00,0,Wunderground v.1.15,2013-06-16 07:40:00,
2013-06-16 03:50:00,49.6,48.5,29.90,NW,311,0.0,0.0,96,0.00,,,0.00,0,Wunderground v.1.15,2013-06-16 07:50:00,
2013-06-16 04:00:00,49.5,48.4,29.90,NW,311,0.0,0.0,96,0.00,,,0.00,0,Wunderground v.1.15,2013-06-16 08:00:00,
2013-06-16 04:10:00,49.6,48.5,29.89,NW,311,0.0,0.0,96,0.00,,,0.00,0,Wunderground v.1.15,2013-06-16 08:10:00,
2013-06-16 04:15:00,49.8,48.7,29.89,NW,311,0.0,0.0,96,0.00,,,0.00,0,Wunderground v.1.15,2013-06-16 08:15:00,
2013-06-16 04:25:00,50.0,48.9,29.89,NW,311,0.0,0.0,96,0.00,,,0.00,0,Wunderground v.1.15,2013-06-16 08:25:00,
2013-06-16 04:35:00,50.3,49.2,29.89,NW,304,0.0,0.0,96,0.00,,,0.00,0,Wunderground v.1.15,2013-06-16 08:35:00,
2013-06-16 04:40:00,50.3,49.2,29.89,South,180,0.0,0.0,96,0.00,,,0.00,0,Wunderground v.1.15,2013-06-16 08:40:00,
2013-06-16 04:50:00,50.1,49.0,29.89,South,180,0.0,0.0,96,0.00,,,0.00,0,Wunderground v.1.15,2013-06-16 08:50:00,
2013-06-16 05:00:00,49.7,48.6,29.89,South,180,0.0,0.0,96,0.00,,,0.00,0,Wunderground v.1.15,2013-06-16 09:00:00,
2013-06-16 05:10:00,49.4,48.3,29.89,South,180,0.0,0.0,96,0.00,,,0.00,0,Wunderground v.1.15,2013-06-16 09:10:00,
2013-06-16 05:20:00,49.3,48.2,29.90,South,180,0.0,0.0,96,0.00,,,0.00,5,Wunderground v.1.15,2013-06-16 09:20:00,
2013-06-16 05:25:00,49.3,48.2,29.90,South,180,0.0,0.0,96,0.00,,,0.00,7,Wunderground v.1.15,2013-06-16 09:25:00,
2013-06-16 05:35:00,49.7,48.6,29.90,South,180,0.0,0.0,96,0.00,,,0.00,14,Wunderground v.1.15,2013-06-16 09:35:00,
2013-06-16 05:45:00,50.5,49.4,29.90,South,180,0.0,0.0,96,0.00,,,0.00,19,Wunderground v.1.15,2013-06-16 09:45:00,
2013-06-16 05:55:00,51.3,50.2,29.91,South,180,0.0,0.0,96,0.00,,,0.00,32,Wunderground v.1.15,2013-06-16 09:55:00,
2013-06-16 06:00:00,51.8,50.7,29.91,South,180,0.0,0.0,96,0.00,,,0.00,28,Wunderground v.1.15,2013-06-16 10:00:00,
2013-06-16 06:10:00,52.2,51.1,29.91,South,180,0.0,0.0,96,0.00,,,0.00,26,Wunderground v.1.15,2013-06-16 10:10:00,
2013-06-16 06:20:00,52.6,51.5,29.90,South,180,0.0,0.0,96,0.00,,,0.00,40,Wunderground v.1.15,2013-06-16 10:20:00,
2013-06-16 06:30:00,53.2,52.1,29.90,South,180,0.0,0.0,96,0.00,,,0.00,65,Wunderground v.1.15,2013-06-16 10:30:00,
2013-06-16 06:35:00,53.5,52.4,29.90,South,180,0.0,0.0,96,0.00,,,0.00,76,Wunderground v.1.15,2013-06-16 10:35:00,
2013-06-16 06:45:00,53.8,52.7,29.91,South,180,0.0,0.0,96,0.00,,,0.00,67,Wunderground v.1.15,2013-06-16 10:45:00,
2013-06-16 06:55:00,54.7,53.6,29.90,South,180,0.0,0.0,96,0.00,,,0.00,109,Wunderground v.1.15,2013-06-16 10:55:00,
2013-06-16 07:00:00,55.2,53.8,29.91,South,180,0.0,0.0,95,0.00,,,0.00,121,Wunderground v.1.15,2013-06-16 11:00:00,
2013-06-16 07:10:00,56.1,54.4,29.91,NNE,22,0.0,0.0,94,0.00,,,0.00,127,Wunderground v.1.15,2013-06-16 11:10:00,
2013-06-16 07:20:00,57.1,54.5,29.90,NNE,22,0.0,0.0,91,0.00,,,0.00,178,Wunderground v.1.15,2013-06-16 11:20:00,
2013-06-16 07:30:00,58.5,54.0,29.90,NNE,28,0.0,0.0,85,0.00,,,0.00,165,Wunderground v.1.15,2013-06-16 11:30:00,
2013-06-16 07:35:00,59.0,53.8,29.90,South,186,0.0,1.0,83,0.00,,,0.00,153,Wunderground v.1.15,2013-06-16 11:35:00,
2013-06-16 07:45:00,60.0,53.8,29.91,South,186,0.0,1.0,80,0.00,,,0.00,156,Wunderground v.1.15,2013-06-16 11:45:00,
2013-06-16 07:55:00,60.3,53.8,29.90,South,180,0.0,1.0,79,0.00,,,0.00,211,Wunderground v.1.15,2013-06-16 11:55:00,
2013-06-16 08:01:00,60.7,54.1,29.90,South,180,0.0,0.0,79,0.00,,,0.00,214,Wunderground v.1.15,2013-06-16 12:01:00,
2013-06-16 08:10:00,61.1,53.8,29.90,South,174,1.0,1.0,77,0.00,,,0.00,197,Wunderground v.1.15,2013-06-16 12:10:00,
2013-06-16 08:20:00,61.5,53.9,29.90,South,174,0.0,1.0,76,0.00,,,0.00,220,Wunderground v.1.15,2013-06-16 12:20:00,
2013-06-16 08:25:00,61.8,54.2,29.90,South,188,0.0,1.0,76,0.00,,,0.00,232,Wunderground v.1.15,2013-06-16 12:25:00,
2013-06-16 08:35:00,62.0,53.6,29.90,South,178,1.0,1.0,74,0.00,,,0.00,206,Wunderground v.1.15,2013-06-16 12:35:00,
2013-06-16 08:45:00,63.0,53.8,29.90,SSE,162,0.0,0.0,72,0.00,,,0.00,302,Wunderground v.1.15,2013-06-16 12:45:00,
2013-06-16 08:55:00,63.9,53.9,29.90,SSE,166,1.0,2.0,70,0.00,,,0.00,346,Wunderground v.1.15,2013-06-16 12:55:00,
2013-06-16 09:00:00,64.6,53.4,29.89,South,180,1.0,3.0,67,0.00,,,0.00,708,Wunderground v.1.15,2013-06-16 13:00:00,
2013-06-16 09:10:00,65.8,54.1,29.89,South,179,1.0,1.0,66,0.00,,,0.00,290,Wunderground v.1.15,2013-06-16 13:10:00,
2013-06-16 09:20:00,66.0,54.7,29.89,SW,217,0.0,0.0,67,0.00,,,0.00,385,Wunderground v.1.15,2013-06-16 13:20:00,
2013-06-16 09:30:00,66.5,54.8,29.89,SSE,168,1.0,1.0,66,0.00,,,0.00,376,Wunderground v.1.15,2013-06-16 13:30:00,
2013-06-16 09:35:00,66.9,54.3,29.89,SSW,198,0.0,1.0,64,0.00,,,0.00,800,Wunderground v.1.15,2013-06-16 13:35:00,
2013-06-16 09:45:00,68.5,55.8,29.87,SSW,196,0.0,1.0,64,0.00,,,0.00,744,Wunderground v.1.15,2013-06-16 13:45:00,
2013-06-16 09:55:00,69.1,56.4,29.87,SSW,196,0.0,1.0,64,0.00,,,0.00,708,Wunderground v.1.15,2013-06-16 13:55:00,
2013-06-16 10:01:00,69.7,54.7,29.87,South,173,1.0,1.0,59,0.00,,,0.00,770,Wunderground v.1.15,2013-06-16 14:01:00,
2013-06-16 10:10:00,70.7,54.7,29.87,South,169,3.0,3.0,57,0.00,,,0.00,780,Wunderground v.1.15,2013-06-16 14:10:00,
2013-06-16 10:20:00,71.6,54.6,29.86,South,178,3.0,5.0,55,0.00,,,0.00,339,Wunderground v.1.15,2013-06-16 14:20:00,
2013-06-16 10:25:00,71.3,54.3,29.86,South,171,2.0,5.0,55,0.00,,,0.00,322,Wunderground v.1.15,2013-06-16 14:25:00,
2013-06-16 10:35:00,71.5,55.5,29.86,South,183,1.0,2.0,57,0.00,,,0.00,352,Wunderground v.1.15,2013-06-16 14:35:00,
2013-06-16 10:45:00,73.0,54.3,29.85,SSE,157,1.0,4.0,52,0.00,,,0.00,830,Wunderground v.1.15,2013-06-16 14:45:00,
2013-06-16 10:55:00,73.8,56.6,29.85,SE,141,3.0,4.0,55,0.00,,,0.00,554,Wunderground v.1.15,2013-06-16 14:55:00,
2013-06-16 11:00:00,73.8,56.1,29.85,WSW,238,2.0,2.0,54,0.00,,,0.00,617,Wunderground v.1.15,2013-06-16 15:00:00,
2013-06-16 11:10:00,73.6,54.9,29.84,South,175,2.0,2.0,52,0.00,,,0.00,828,Wunderground v.1.15,2013-06-16 15:10:00,
2013-06-16 11:20:00,74.0,54.7,29.85,NNW,342,0.0,0.0,51,0.00,,,0.00,455,Wunderground v.1.15,2013-06-16 15:20:00,
2013-06-16 11:30:00,73.7,54.4,29.84,SSE,156,2.0,2.0,51,0.00,,,0.00,483,Wunderground v.1.15,2013-06-16 15:30:00,
2013-06-16 11:35:00,74.0,54.2,29.84,WNW,294,2.0,5.0,50,0.00,,,0.00,531,Wunderground v.1.15,2013-06-16 15:35:00,
2013-06-16 11:45:00,74.6,55.3,29.84,SSE,162,2.0,2.0,51,0.00,,,0.00,1165,Wunderground v.1.15,2013-06-16 15:45:00,
2013-06-16 11:55:00,75.7,55.2,29.83,SE,144,3.0,3.0,49,0.00,,,0.00,729,Wunderground v.1.15,2013-06-16 15:55:00,
2013-06-16 12:01:00,75.6,53.4,29.83,SE,134,3.0,5.0,46,0.00,,,0.00,345,Wunderground v.1.15,2013-06-16 16:01:00,
2013-06-16 12:10:00,73.8,53.4,29.83,ESE,111,3.0,3.0,49,0.00,,,0.00,401,Wunderground v.1.15,2013-06-16 16:10:00,
2013-06-16 12:20:00,73.5,53.2,29.83,ESE,107,2.0,2.0,49,0.00,,,0.00,383,Wunderground v.1.15,2013-06-16 16:20:00,
2013-06-16 12:25:00,73.3,53.5,29.83,WSW,239,2.0,2.0,50,0.00,,,0.00,381,Wunderground v.1.15,2013-06-16 16:25:00,
2013-06-16 12:35:00,73.3,55.1,29.82,South,171,3.0,5.0,53,0.00,,,0.00,443,Wunderground v.1.15,2013-06-16 16:35:00,
2013-06-16 12:45:00,73.4,54.7,29.82,SSE,168,4.0,4.0,52,0.00,,,0.00,322,Wunderground v.1.15,2013-06-16 16:45:00,
2013-06-16 12:50:00,73.0,55.4,29.82,SE,145,3.0,3.0,54,0.00,,,0.00,315,Wunderground v.1.15,2013-06-16 16:50:00,
2013-06-16 13:00:00,72.7,56.6,29.81,SSE,168,2.0,2.0,57,0.00,,,0.00,274,Wunderground v.1.15,2013-06-16 17:00:00,
2013-06-16 13:10:00,72.6,56.0,29.80,SSE,150,3.0,3.0,56,0.00,,,0.00,274,Wunderground v.1.15,2013-06-16 17:10:00,
2013-06-16 13:15:00,72.5,55.4,29.80,SSE,153,3.0,3.0,55,0.00,,,0.00,241,Wunderground v.1.15,2013-06-16 17:15:00,
2013-06-16 13:25:00,72.2,56.6,29.80,ENE,76,3.0,3.0,58,0.00,,,0.00,250,Wunderground v.1.15,2013-06-16 17:25:00,
2013-06-16 13:35:00,72.1,57.4,29.80,SSW,205,1.0,3.0,60,0.00,,,0.00,223,Wunderground v.1.15,2013-06-16 17:35:00,
2013-06-16 13:40:00,71.9,56.8,29.80,SSW,201,1.0,5.0,59,0.00,,,0.00,221,Wunderground v.1.15,2013-06-16 17:40:00,
2013-06-16 13:50:00,71.7,56.1,29.80,South,175,3.0,3.0,58,0.00,,,0.00,234,Wunderground v.1.15,2013-06-16 17:50:00,
2013-06-16 14:00:00,71.6,57.0,29.79,SE,144,2.0,2.0,60,0.00,,,0.00,167,Wunderground v.1.15,2013-06-16 18:00:00,
2013-06-16 14:10:00,71.2,58.0,29.78,SSE,150,1.0,1.0,63,0.00,,,0.00,190,Wunderground v.1.15,2013-06-16 18:10:00,
2013-06-16 14:20:00,71.3,58.1,29.78,SSE,167,1.0,1.0,63,0.00,,,0.00,197,Wunderground v.1.15,2013-06-16 18:20:00,
2013-06-16 14:30:00,71.1,58.3,29.77,ESE,104,1.0,1.0,64,0.00,,,0.00,230,Wunderground v.1.15,2013-06-16 18:30:00,
2013-06-16 14:35:00,71.2,58.0,29.77,SSW,196,2.0,6.0,63,0.00,,,0.00,255,Wunderground v.1.15,2013-06-16 18:35:00,
2013-06-16 14:45:00,71.5,59.1,29.76,ESE,121,3.0,3.0,65,0.00,,,0.00,325,Wunderground v.1.15,2013-06-16 18:45:00,
2013-06-16 14:55:00,72.1,59.2,29.76,SSW,192,2.0,4.0,64,0.00,,,0.00,388,Wunderground v.1.15,2013-06-16 18:55:00,
2013-06-16 15:01:00,72.1,60.1,29.75,South,180,2.0,3.0,66,0.00,,,0.00,371,Wunderground v.1.15,2013-06-16 19:01:00,
2013-06-16 15:10:00,72.4,60.0,29.75,SSE,167,3.0,3.0,65,0.00,,,0.00,376,Wunderground v.1.15,2013-06-16 19:10:00,
2013-06-16 15:20:00,73.4,60.9,29.75,SSE,164,2.0,2.0,65,0.00,,,0.00,791,Wunderground v.1.15,2013-06-16 19:20:00,
2013-06-16 15:30:00,73.7,61.2,29.74,South,185,3.0,4.0,65,0.00,,,0.00,396,Wunderground v.1.15,2013-06-16 19:30:00,
2013-06-16 15:40:00,73.5,61.0,29.73,SE,135,3.0,3.0,65,0.00,,,0.00,207,Wunderground v.1.15,2013-06-16 19:40:00,
2013-06-16 15:50:00,73.0,61.0,29.73,South,171,3.0,3.0,66,0.00,,,0.00,169,Wunderground v.1.15,2013-06-16 19:50:00,
2013-06-16 16:00:00,72.8,60.8,29.73,South,186,2.0,3.0,66,0.00,,,0.00,195,Wunderground v.1.15,2013-06-16 20:00:00,
2013-06-16 16:05:00,72.8,62.0,29.73,South,174,2.0,3.0,69,0.00,,,0.00,123,Wunderground v.1.15,2013-06-16 20:05:00,
2013-06-16 16:15:00,72.5,60.9,29.72,SSW,192,3.0,3.0,67,0.00,,,0.00,149,Wunderground v.1.15,2013-06-16 20:15:00,
2013-06-16 16:25:00,72.6,61.4,29.72,SSE,166,2.0,2.0,68,0.00,,,0.00,102,Wunderground v.1.15,2013-06-16 20:25:00,
2013-06-16 16:30:00,72.6,60.6,29.72,SSE,159,3.0,3.0,66,0.00,,,0.00,60,Wunderground v.1.15,2013-06-16 20:30:00,
2013-06-16 16:40:00,72.6,58.8,29.72,SSE,158,4.0,4.0,62,0.00,,,0.00,70,Wunderground v.1.15,2013-06-16 20:40:00,
2013-06-16 16:50:00,72.5,57.8,29.71,SSE,155,4.0,4.0,60,0.00,,,0.00,70,Wunderground v.1.15,2013-06-16 20:50:00,
2013-06-16 16:55:00,72.3,57.6,29.71,SSW,204,3.0,4.0,60,0.00,,,0.00,67,Wunderground v.1.15,2013-06-16 20:55:00,
2013-06-16 17:01:00,72.2,58.5,29.71,SSE,167,2.0,2.0,62,0.00,,,0.00,40,Wunderground v.1.15,2013-06-16 21:01:00,
2013-06-16 17:10:00,71.9,58.6,29.72,SSE,153,1.0,1.0,63,0.00,,,0.00,39,Wunderground v.1.15,2013-06-16 21:10:00,
2013-06-16 17:15:00,71.7,58.9,29.72,SSW,197,1.0,1.0,64,0.00,,,0.00,39,Wunderground v.1.15,2013-06-16 21:15:00,
2013-06-16 17:25:00,71.2,59.7,29.72,SW,236,1.0,1.0,67,0.00,,,0.00,30,Wunderground v.1.15,2013-06-16 21:25:00,
2013-06-16 17:35:00,71.4,57.2,29.70,South,180,3.0,7.0,61,0.00,,,0.00,63,Wunderground v.1.15,2013-06-16 21:35:00,
2013-06-16 17:45:00,71.7,57.5,29.69,South,187,2.0,4.0,61,0.00,,,0.00,98,Wunderground v.1.15,2013-06-16 21:45:00,
2013-06-16 17:55:00,71.9,58.2,29.69,South,187,2.0,3.0,62,0.00,,,0.00,120,Wunderground v.1.15,2013-06-16 21:55:00,
2013-06-16 18:01:00,71.9,58.6,29.69,South,185,2.0,2.0,63,0.00,,,0.00,105,Wunderground v.1.15,2013-06-16 22:01:00,
2013-06-16 18:10:00,71.5,58.2,29.69,South,190,1.0,1.0,63,0.00,,,0.00,77,Wunderground v.1.15,2013-06-16 22:10:00,
2013-06-16 18:20:00,71.3,58.5,29.69,South,175,1.0,2.0,64,0.00,,,0.00,54,Wunderground v.1.15,2013-06-16 22:20:00,
2013-06-16 18:30:00,71.0,59.1,29.69,SSW,198,1.0,1.0,66,0.00,,,0.00,69,Wunderground v.1.15,2013-06-16 22:30:00,
2013-06-16 18:40:00,70.7,58.8,29.69,SSE,148,0.0,0.0,66,0.00,,,0.00,69,Wunderground v.1.15,2013-06-16 22:40:00,
2013-06-16 18:50:00,70.7,59.2,29.68,SSE,159,2.0,3.0,67,0.00,,,0.00,93,Wunderground v.1.15,2013-06-16 22:50:00,
2013-06-16 19:01:00,70.8,59.7,29.68,SSE,158,2.0,2.0,68,0.00,,,0.00,74,Wunderground v.1.15,2013-06-16 23:01:00,
2013-06-16 19:10:00,70.8,59.7,29.67,SSE,167,1.0,1.0,68,0.00,,,0.00,102,Wunderground v.1.15,2013-06-16 23:10:00,
2013-06-16 19:20:00,70.8,59.7,29.67,SSE,165,1.0,1.0,68,0.00,,,0.00,98,Wunderground v.1.15,2013-06-16 23:20:00,
2013-06-16 19:30:00,70.9,61.4,29.68,South,178,1.0,1.0,72,0.00,,,0.00,97,Wunderground v.1.15,2013-06-16 23:30:00,
2013-06-16 19:40:00,70.6,61.9,29.68,South,176,0.0,0.0,74,0.00,,,0.00,63,Wunderground v.1.15,2013-06-16 23:40:00,
2013-06-16 19:50:00,69.6,62.4,29.68,South,176,0.0,0.0,78,0.00,,,0.00,28,Wunderground v.1.15,2013-06-16 23:50:00,
2013-06-16 20:01:00,68.3,61.5,29.68,South,176,0.0,0.0,79,0.00,,,0.00,11,Wunderground v.1.15,2013-06-17 00:01:00,
2013-06-16 20:10:00,68.0,62.3,29.69,South,176,0.0,0.0,82,0.00,,,0.00,5,Wunderground v.1.15,2013-06-17 00:10:00,
2013-06-16 20:15:00,67.5,62.2,29.68,South,176,0.0,0.0,83,0.00,,,0.00,0,Wunderground v.1.15,2013-06-17 00:15:00,
2013-06-16 20:25:00,66.8,62.1,29.68,South,176,0.0,0.0,85,0.00,,,0.00,0,Wunderground v.1.15,2013-06-17 00:25:00,
2013-06-16 20:35:00,66.4,61.8,29.69,South,176,0.0,0.0,85,0.00,,,0.00,0,Wunderground v.1.15,2013-06-17 00:35:00,
2013-06-16 20:45:00,66.4,61.8,29.69,South,176,0.0,0.0,85,0.00,,,0.00,0,Wunderground v.1.15,2013-06-17 00:45:00,
2013-06-16 20:55:00,66.2,61.9,29.69,South,176,0.0,0.0,86,0.00,,,0.00,0,Wunderground v.1.15,2013-06-17 00:55:00,
2013-06-16 21:01:00,65.7,61.4,29.70,South,176,0.0,0.0,86,0.00,,,0.00,0,Wunderground v.1.15,2013-06-17 01:01:00,
2013-06-16 21:10:00,65.6,61.6,29.70,South,176,0.0,0.0,87,0.00,,,0.00,0,Wunderground v.1.15,2013-06-17 01:10:00,
2013-06-16 21:20:00,65.6,61.9,29.71,South,176,0.0,0.0,88,0.00,,,0.00,0,Wunderground v.1.15,2013-06-17 01:20:00,
2013-06-16 21:25:00,65.5,61.9,29.71,South,176,0.0,0.0,88,0.00,,,0.00,0,Wunderground v.1.15,2013-06-17 01:25:00,
2013-06-16 21:35:00,65.4,61.8,29.71,South,176,0.0,0.0,88,0.00,,,0.00,0,Wunderground v.1.15,2013-06-17 01:35:00,
2013-06-16 21:45:00,65.8,61.8,29.72,South,176,0.0,0.0,87,0.00,,,0.00,0,Wunderground v.1.15,2013-06-17 01:45:00,
2013-06-16 21:55:00,65.6,61.6,29.72,South,176,0.0,0.0,87,0.00,,,0.00,0,Wunderground v.1.15,2013-06-17 01:55:00,
2013-06-16 22:01:00,65.2,61.6,29.72,South,176,0.0,0.0,88,0.00,,,0.00,0,Wunderground v.1.15,2013-06-17 02:01:00,
2013-06-16 22:10:00,64.6,61.0,29.72,South,176,0.0,0.0,88,0.00,,,0.00,0,Wunderground v.1.15,2013-06-17 02:10:00,
2013-06-16 22:20:00,63.3,60.0,29.72,South,176,0.0,0.0,89,0.00,,,0.00,0,Wunderground v.1.15,2013-06-17 02:20:00,
2013-06-16 22:30:00,63.0,60.0,29.73,South,176,0.0,0.0,90,0.00,,,0.00,0,Wunderground v.1.15,2013-06-17 02:30:00,
2013-06-16 22:35:00,63.3,60.6,29.73,West,271,0.0,0.0,91,0.00,,,0.00,0,Wunderground v.1.15,2013-06-17 02:35:00,
2013-06-16 22:45:00,63.5,60.2,29.73,WNW,286,0.0,3.0,89,0.00,,,0.00,0,Wunderground v.1.15,2013-06-17 02:45:00,
2013-06-16 22:55:00,63.8,60.2,29.73,ESE,111,0.0,0.0,88,0.00,,,0.00,0,Wunderground v.1.15,2013-06-17 02:55:00,
2013-06-16 23:01:00,64.6,60.3,29.73,South,172,0.0,0.0,86,0.00,,,0.00,0,Wunderground v.1.15,2013-06-17 03:01:00,
2013-06-16 23:10:00,66.3,60.6,29.73,NE,44,0.0,0.0,82,0.00,,,0.00,0,Wunderground v.1.15,2013-06-17 03:10:00,
2013-06-16 23:20:00,66.5,60.5,29.74,SW,225,0.0,0.0,81,0.00,,,0.00,0,Wunderground v.1.15,2013-06-17 03:20:00,
2013-06-16 23:25:00,66.0,60.3,29.73,SSE,155,0.0,0.0,82,0.00,,,0.00,0,Wunderground v.1.15,2013-06-17 03:25:00,
2013-06-16 23:35:00,64.9,59.6,29.73,SSE,159,0.0,0.0,83,0.00,,,0.00,0,Wunderground v.1.15,2013-06-17 03:35:00,
2013-06-16 23:45:00,63.3,59.0,29.74,SSE,159,0.0,0.0,86,0.00,,,0.00,0,Wunderground v.1.15,2013-06-17 03:45:00,
2013-06-16 23:55:00,62.6,59.0,29.74,WSW,254,0.0,0.0,88,0.00,,,0.00,0,Wunderground v.1.15,2013-06-17 03:55:00,